Time,TemperatureF,DewpointF,PressureIn,WindDirection,WindDirectionDegrees,WindSpeedMPH,WindSpeedGustMPH,Humidity,HourlyPrecipIn,Conditions,Clouds,dailyrainin,SoftwareType,DateUTC
2013-01-29 00:00:00,62.8,58.0,29.78,NNW,342,12.0,17.0,84,0.00,,,0.00,WUHU216DAVISVP2,2013-01-29 06:00:00,
2013-01-29 00:05:00,62.9,58.1,29.78,North,2,10.0,17.0,84,0.00,,,0.00,WUHU216DAVISVP2,2013-01-29 06:05:00,
2013-01-29 00:10:00,62.9,58.0,29.78,North,8,5.0,17.0,84,0.00,,,0.00,WUHU216DAVISVP2,2013-01-29 06:10:00,
2013-01-29 00:15:00,62.8,57.9,29.78,NNW,344,8.0,17.0,84,0.00,,,0.00,WUHU216DAVISVP2,2013-01-29 06:15:00,
2013-01-29 00:20:00,62.9,58.0,29.77,North,2,7.0,14.0,84,0.00,,,0.00,WUHU216DAVISVP2,2013-01-29 06:20:00,
2013-01-29 00:25:00,62.9,58.0,29.77,NNE,20,3.0,14.0,84,0.00,,,0.00,WUHU216DAVISVP2,2013-01-29 06:25:00,
2013-01-29 00:30:00,62.9,58.0,29.77,NNW,345,4.0,14.0,84,0.00,,,0.00,WUHU216DAVISVP2,2013-01-29 06:30:00,
2013-01-29 00:35:00,62.9,58.0,29.76,NNW,346,6.0,14.0,84,0.00,,,0.00,WUHU216DAVISVP2,2013-01-29 06:35:00,
2013-01-29 00:40:00,62.9,58.0,29.76,North,349,8.0,12.0,84,0.00,,,0.00,WUHU216DAVISVP2,2013-01-29 06:40:00,
2013-01-29 00:45:00,62.8,57.9,29.76,NW,324,8.0,12.0,84,0.00,,,0.00,WUHU216DAVISVP2,2013-01-29 06:45:00,
2013-01-29 00:50:00,62.9,58.0,29.75,North,10,8.0,14.0,84,0.00,,,0.00,WUHU216DAVISVP2,2013-01-29 06:50:00,
2013-01-29 00:55:00,63.0,58.1,29.75,North,356,11.0,14.0,84,0.00,,,0.00,WUHU216DAVISVP2,2013-01-29 06:55:00,
2013-01-29 01:00:00,63.0,57.8,29.74,North,350,8.0,14.0,83,0.00,,,0.00,WUHU216DAVISVP2,2013-01-29 07:00:00,
2013-01-29 01:05:00,63.1,57.9,29.75,North,7,9.0,15.0,83,0.00,,,0.00,WUHU216DAVISVP2,2013-01-29 07:05:00,
2013-01-29 01:10:00,63.1,57.9,29.75,NNE,25,1.0,15.0,83,0.00,,,0.00,WUHU216DAVISVP2,2013-01-29 07:10:00,
2013-01-29 01:15:00,63.1,57.9,29.74,NNE,15,7.0,15.0,83,0.00,,,0.00,WUHU216DAVISVP2,2013-01-29 07:15:00,
2013-01-29 01:20:00,63.1,57.9,29.75,North,360,3.0,15.0,83,0.00,,,0.00,WUHU216DAVISVP2,2013-01-29 07:20:00,
2013-01-29 01:25:00,63.1,57.9,29.74,North,4,9.0,14.0,83,0.00,,,0.00,WUHU216DAVISVP2,2013-01-29 07:25:00,
2013-01-29 01:30:00,63.1,57.9,29.74,NNW,341,8.0,14.0,83,0.00,,,0.00,WUHU216DAVISVP2,2013-01-29 07:30:00,
2013-01-29 01:35:00,63.1,57.9,29.74,North,6,5.0,14.0,83,0.00,,,0.00,WUHU216DAVISVP2,2013-01-29 07:35:00,
2013-01-29 01:40:00,63.1,57.9,29.74,NNE,15,7.0,14.0,83,0.00,,,0.00,WUHU216DAVISVP2,2013-01-29 07:40:00,
2013-01-29 01:45:00,63.1,57.9,29.74,NNE,29,4.0,12.0,83,0.00,,,0.00,WUHU216DAVISVP2,2013-01-29 07:45:00,
2013-01-29 01:50:00,63.2,58.0,29.74,NNE,20,4.0,14.0,83,0.00,,,0.00,WUHU216DAVISVP2,2013-01-29 07:50:00,
2013-01-29 01:55:00,63.3,58.1,29.74,North,5,5.0,16.0,83,0.00,,,0.00,WUHU216DAVISVP2,2013-01-29 07:55:00,
2013-01-29 02:00:00,63.4,57.8,29.74,NNE,15,5.0,16.0,82,0.00,,,0.00,WUHU216DAVISVP2,2013-01-29 08:00:00,
2013-01-29 02:05:00,63.4,57.8,29.74,NNE,15,6.0,16.0,82,0.00,,,0.00,WUHU216DAVISVP2,2013-01-29 08:05:00,
2013-01-29 02:10:00,63.4,57.8,29.74,North,356,7.0,16.0,82,0.00,,,0.00,WUHU216DAVISVP2,2013-01-29 08:10:00,
2013-01-29 02:15:00,63.2,58.0,29.74,North,349,6.0,14.0,83,0.00,,,0.00,WUHU216DAVISVP2,2013-01-29 08:15:00,
2013-01-29 02:20:00,63.2,58.0,29.74,North,6,6.0,14.0,83,0.00,,,0.00,WUHU216DAVISVP2,2013-01-29 08:20:00,
2013-01-29 02:25:00,63.2,58.0,29.73,North,11,11.0,19.0,83,0.00,,,0.00,WUHU216DAVISVP2,2013-01-29 08:25:00,
2013-01-29 02:30:00,63.3,57.8,29.73,NNW,340,12.0,19.0,82,0.00,,,0.00,WUHU216DAVISVP2,2013-01-29 08:30:00,
2013-01-29 02:36:00,63.4,57.9,29.73,North,356,6.0,19.0,82,0.00,,,0.00,WUHU216DAVISVP2,2013-01-29 08:36:00,
2013-01-29 02:41:00,63.3,57.8,29.73,North,1,7.0,19.0,82,0.00,,,0.00,WUHU216DAVISVP2,2013-01-29 08:41:00,
2013-01-29 02:47:00,63.3,57.7,29.73,NNE,15,9.0,15.0,82,0.00,,,0.00,WUHU216DAVISVP2,2013-01-29 08:47:00,
2013-01-29 02:52:00,63.4,57.8,29.73,North,358,6.0,16.0,82,0.00,,,0.00,WUHU216DAVISVP2,2013-01-29 08:52:00,
2013-01-29 02:57:00,63.4,57.8,29.73,North,359,8.0,16.0,82,0.00,,,0.00,WUHU216DAVISVP2,2013-01-29 08:57:00,
2013-01-29 03:02:00,63.5,58.0,29.73,North,5,9.0,16.0,82,0.00,,,0.00,WUHU216DAVISVP2,2013-01-29 09:02:00,
2013-01-29 03:07:00,63.6,57.7,29.74,NNE,25,13.0,16.0,81,0.00,,,0.00,WUHU216DAVISVP2,2013-01-29 09:07:00,
2013-01-29 03:12:00,63.7,57.9,29.73,NNE,15,10.0,15.0,81,0.00,,,0.00,WUHU216DAVISVP2,2013-01-29 09:12:00,
2013-01-29 03:17:00,63.8,57.9,29.73,North,3,10.0,16.0,81,0.00,,,0.00,WUHU216DAVISVP2,2013-01-29 09:17:00,
2013-01-29 03:22:00,63.9,58.0,29.73,NNW,346,4.0,17.0,81,0.00,,,0.00,WUHU216DAVISVP2,2013-01-29 09:22:00,
2013-01-29 03:27:00,64.0,58.1,29.72,NNW,345,11.0,17.0,81,0.00,,,0.00,WUHU216DAVISVP2,2013-01-29 09:27:00,
2013-01-29 03:32:00,63.9,58.0,29.73,North,5,5.0,17.0,81,0.00,,,0.00,WUHU216DAVISVP2,2013-01-29 09:32:00,
2013-01-29 03:37:00,63.9,58.0,29.72,ENE,63,6.0,17.0,81,0.00,,,0.00,WUHU216DAVISVP2,2013-01-29 09:37:00,
2013-01-29 03:42:00,64.0,58.1,29.72,North,4,10.0,17.0,81,0.00,,,0.00,WUHU216DAVISVP2,2013-01-29 09:42:00,
2013-01-29 03:47:00,64.1,58.2,29.72,North,9,8.0,16.0,81,0.00,,,0.00,WUHU216DAVISVP2,2013-01-29 09:47:00,
2013-01-29 03:52:00,64.1,58.2,29.72,North,349,6.0,16.0,81,0.00,,,0.00,WUHU216DAVISVP2,2013-01-29 09:52:00,
2013-01-29 03:57:00,64.1,58.2,29.72,North,11,11.0,16.0,81,0.00,,,0.00,WUHU216DAVISVP2,2013-01-29 09:57:00,
2013-01-29 04:02:00,64.2,58.0,29.72,NNE,15,8.0,16.0,80,0.00,,,0.00,WUHU216DAVISVP2,2013-01-29 10:02:00,
2013-01-29 04:07:00,64.2,58.3,29.72,NNE,15,6.0,16.0,81,0.00,,,0.00,WUHU216DAVISVP2,2013-01-29 10:07:00,
2013-01-29 04:12:00,64.1,58.2,29.72,North,359,8.0,16.0,81,0.00,,,0.00,WUHU216DAVISVP2,2013-01-29 10:12:00,
2013-01-29 04:17:00,64.1,58.2,29.71,NE,37,8.0,15.0,81,0.00,,,0.00,WUHU216DAVISVP2,2013-01-29 10:17:00,
2013-01-29 04:22:00,64.2,58.3,29.71,North,10,6.0,16.0,81,0.00,,,0.00,WUHU216DAVISVP2,2013-01-29 10:22:00,
2013-01-29 04:27:00,64.2,58.3,29.70,NNW,347,7.0,16.0,81,0.00,,,0.00,WUHU216DAVISVP2,2013-01-29 10:27:00,
2013-01-29 04:32:00,64.2,58.3,29.70,North,8,6.0,16.0,81,0.00,,,0.00,WUHU216DAVISVP2,2013-01-29 10:32:00,
2013-01-29 04:37:00,64.2,58.3,29.70,North,355,7.0,16.0,81,0.00,,,0.00,WUHU216DAVISVP2,2013-01-29 10:37:00,
2013-01-29 04:42:00,64.4,58.5,29.70,North,4,4.0,16.0,81,0.00,,,0.00,WUHU216DAVISVP2,2013-01-29 10:42:00,
2013-01-29 04:47:00,64.5,58.6,29.70,NNE,33,6.0,16.0,81,0.00,,,0.00,WUHU216DAVISVP2,2013-01-29 10:47:00,
2013-01-29 04:52:00,64.6,58.4,29.70,North,3,8.0,16.0,80,0.00,,,0.00,WUHU216DAVISVP2,2013-01-29 10:52:00,
2013-01-29 04:57:00,64.6,58.4,29.69,North,4,11.0,16.0,80,0.00,,,0.00,WUHU216DAVISVP2,2013-01-29 10:57:00,
2013-01-29 05:02:00,64.7,58.4,29.69,NNE,15,11.0,17.0,80,0.00,,,0.00,WUHU216DAVISVP2,2013-01-29 11:02:00,
2013-01-29 05:07:00,64.7,58.5,29.69,North,4,7.0,17.0,80,0.00,,,0.00,WUHU216DAVISVP2,2013-01-29 11:07:00,
2013-01-29 05:12:00,64.8,58.6,29.69,North,4,8.0,17.0,80,0.00,,,0.00,WUHU216DAVISVP2,2013-01-29 11:12:00,
2013-01-29 05:17:00,64.9,58.6,29.69,NNE,15,10.0,17.0,80,0.00,,,0.00,WUHU216DAVISVP2,2013-01-29 11:17:00,
2013-01-29 05:22:00,64.9,58.6,29.69,NNE,25,11.0,17.0,80,0.00,,,0.00,WUHU216DAVISVP2,2013-01-29 11:22:00,
2013-01-29 05:27:00,64.8,58.6,29.69,North,2,7.0,18.0,80,0.00,,,0.00,WUHU216DAVISVP2,2013-01-29 11:27:00,
2013-01-29 05:32:00,64.9,58.6,29.69,North,1,5.0,18.0,80,0.00,,,0.00,WUHU216DAVISVP2,2013-01-29 11:32:00,
2013-01-29 05:37:00,64.9,58.6,29.69,North,7,9.0,20.0,80,0.00,,,0.00,WUHU216DAVISVP2,2013-01-29 11:37:00,
2013-01-29 05:42:00,64.9,58.7,29.69,North,8,10.0,20.0,80,0.00,,,0.00,WUHU216DAVISVP2,2013-01-29 11:42:00,
2013-01-29 05:47:00,64.8,58.6,29.69,North,10,5.0,20.0,80,0.00,,,0.00,WUHU216DAVISVP2,2013-01-29 11:47:00,
2013-01-29 05:52:00,64.9,58.6,29.69,NNE,25,9.0,20.0,80,0.00,,,0.00,WUHU216DAVISVP2,2013-01-29 11:52:00,
2013-01-29 05:57:00,64.9,59.0,29.68,NNE,20,9.0,19.0,81,0.00,,,0.00,WUHU216DAVISVP2,2013-01-29 11:57:00,
2013-01-29 06:02:00,64.9,58.7,29.68,NNE,33,8.0,19.0,80,0.00,,,0.00,WUHU216DAVISVP2,2013-01-29 12:02:00,
2013-01-29 06:07:00,65.0,59.1,29.68,NNE,15,10.0,19.0,81,0.00,,,0.00,WUHU216DAVISVP2,2013-01-29 12:07:00,
2013-01-29 06:12:00,64.9,59.0,29.68,NNE,25,7.0,19.0,81,0.00,,,0.00,WUHU216DAVISVP2,2013-01-29 12:12:00,
2013-01-29 06:17:00,64.9,58.9,29.68,NE,35,8.0,18.0,81,0.00,,,0.00,WUHU216DAVISVP2,2013-01-29 12:17:00,
2013-01-29 06:22:00,64.6,58.7,29.67,North,358,8.0,18.0,81,0.00,,,0.00,WUHU216DAVISVP2,2013-01-29 12:22:00,
2013-01-29 06:27:00,64.5,59.0,29.67,North,353,5.0,18.0,82,0.00,,,0.00,WUHU216DAVISVP2,2013-01-29 12:27:00,
2013-01-29 06:32:00,64.6,59.0,29.67,NNW,336,8.0,15.0,82,0.00,,,0.00,WUHU216DAVISVP2,2013-01-29 12:32:00,
2013-01-29 06:37:00,64.6,59.0,29.67,NNE,15,11.0,19.0,82,0.00,,,0.00,WUHU216DAVISVP2,2013-01-29 12:37:00,
2013-01-29 06:42:00,64.6,59.1,29.67,North,351,9.0,19.0,82,0.00,,,0.00,WUHU216DAVISVP2,2013-01-29 12:42:00,
2013-01-29 06:47:00,64.8,59.2,29.66,North,359,11.0,20.0,82,0.00,,,0.00,WUHU216DAVISVP2,2013-01-29 12:47:00,
2013-01-29 06:52:00,64.7,59.1,29.66,North,358,12.0,20.0,82,0.00,,,0.00,WUHU216DAVISVP2,2013-01-29 12:52:00,
2013-01-29 06:57:00,64.7,59.2,29.66,NNW,342,8.0,20.0,82,0.00,,,0.00,WUHU216DAVISVP2,2013-01-29 12:57:00,
2013-01-29 07:02:00,64.7,59.1,29.66,NNW,337,13.0,20.0,82,0.00,,,0.00,WUHU216DAVISVP2,2013-01-29 13:02:00,
2013-01-29 07:07:00,64.6,59.0,29.66,North,5,10.0,17.0,82,0.00,,,0.00,WUHU216DAVISVP2,2013-01-29 13:07:00,
2013-01-29 07:12:00,64.6,59.1,29.65,North,10,13.0,17.0,82,0.00,,,0.00,WUHU216DAVISVP2,2013-01-29 13:12:00,
2013-01-29 07:17:00,64.6,59.0,29.65,North,349,5.0,17.0,82,0.00,,,0.00,WUHU216DAVISVP2,2013-01-29 13:17:00,
2013-01-29 07:22:00,64.6,59.0,29.65,North,6,8.0,17.0,82,0.00,,,0.00,WUHU216DAVISVP2,2013-01-29 13:22:00,
2013-01-29 07:27:00,64.6,59.0,29.64,NNW,344,17.0,17.0,82,0.00,,,0.00,WUHU216DAVISVP2,2013-01-29 13:27:00,
2013-01-29 07:32:00,64.6,59.0,29.64,North,353,13.0,18.0,82,0.00,,,0.00,WUHU216DAVISVP2,2013-01-29 13:32:00,
2013-01-29 07:37:00,64.6,59.4,29.64,North,349,10.0,18.0,83,0.00,,,0.00,WUHU216DAVISVP2,2013-01-29 13:37:00,
2013-01-29 07:42:00,64.6,59.3,29.64,North,1,10.0,18.0,83,0.00,,,0.00,WUHU216DAVISVP2,2013-01-29 13:42:00,
2013-01-29 07:47:00,64.7,59.5,29.64,North,354,12.0,20.0,83,0.00,,,0.00,WUHU216DAVISVP2,2013-01-29 13:47:00,
2013-01-29 07:52:00,64.7,59.5,29.64,North,349,8.0,20.0,83,0.00,,,0.00,WUHU216DAVISVP2,2013-01-29 13:52:00,
2013-01-29 07:57:00,64.7,59.4,29.64,North,360,10.0,20.0,83,0.00,,,0.00,WUHU216DAVISVP2,2013-01-29 13:57:00,
2013-01-29 08:02:00,64.5,59.3,29.64,NNW,345,9.0,17.0,83,0.00,,,0.00,WUHU216DAVISVP2,2013-01-29 14:02:00,
2013-01-29 08:08:00,64.3,59.1,29.64,NNW,346,12.0,17.0,83,0.00,,,0.00,WUHU216DAVISVP2,2013-01-29 14:08:00,
2013-01-29 08:13:00,64.1,58.9,29.64,North,360,10.0,17.0,83,0.00,,,0.00,WUHU216DAVISVP2,2013-01-29 14:13:00,
2013-01-29 08:18:00,64.0,58.8,29.63,NNW,344,15.0,17.0,83,0.00,,,0.00,WUHU216DAVISVP2,2013-01-29 14:18:00,
2013-01-29 08:23:00,63.9,58.7,29.64,North,349,9.0,17.0,83,0.00,,,0.00,WUHU216DAVISVP2,2013-01-29 14:23:00,
2013-01-29 08:28:00,63.8,58.6,29.63,North,351,10.0,17.0,83,0.00,,,0.00,WUHU216DAVISVP2,2013-01-29 14:28:00,
2013-01-29 08:33:00,63.7,58.4,29.63,NNW,337,8.0,17.0,83,0.00,,,0.00,WUHU216DAVISVP2,2013-01-29 14:33:00,
2013-01-29 08:38:00,63.5,58.3,29.63,North,356,10.0,17.0,83,0.00,,,0.00,WUHU216DAVISVP2,2013-01-29 14:38:00,
2013-01-29 08:43:00,63.4,58.1,29.63,North,353,6.0,18.0,83,0.00,,,0.00,WUHU216DAVISVP2,2013-01-29 14:43:00,
2013-01-29 08:47:00,63.2,58.0,29.63,NNW,347,5.0,18.0,83,0.00,,,0.00,WUHU216DAVISVP2,2013-01-29 14:47:00,
2013-01-29 08:52:00,63.1,57.8,29.63,NNE,15,8.0,18.0,83,0.00,,,0.00,WUHU216DAVISVP2,2013-01-29 14:52:00,
2013-01-29 08:57:00,62.9,57.7,29.63,North,2,5.0,18.0,83,0.00,,,0.00,WUHU216DAVISVP2,2013-01-29 14:57:00,
2013-01-29 09:03:00,62.9,57.7,29.63,North,360,7.0,13.0,83,0.00,,,0.00,WUHU216DAVISVP2,2013-01-29 15:03:00,
2013-01-29 09:08:00,62.8,57.6,29.62,North,360,5.0,15.0,83,0.00,,,0.00,WUHU216DAVISVP2,2013-01-29 15:08:00,
2013-01-29 09:13:00,62.7,57.5,29.62,NNE,15,9.0,15.0,83,0.00,,,0.00,WUHU216DAVISVP2,2013-01-29 15:13:00,
2013-01-29 09:18:00,62.5,57.3,29.62,North,3,7.0,16.0,83,0.00,,,0.00,WUHU216DAVISVP2,2013-01-29 15:18:00,
2013-01-29 09:23:00,62.5,57.3,29.62,North,350,10.0,16.0,83,0.00,,,0.00,WUHU216DAVISVP2,2013-01-29 15:23:00,
2013-01-29 09:28:00,62.4,57.2,29.61,North,6,7.0,16.0,83,0.00,,,0.00,WUHU216DAVISVP2,2013-01-29 15:28:00,
2013-01-29 09:33:00,62.3,57.1,29.61,North,355,14.0,16.0,83,0.00,,,0.00,WUHU216DAVISVP2,2013-01-29 15:33:00,
2013-01-29 09:38:00,62.2,57.1,29.61,North,350,8.0,17.0,83,0.00,,,0.00,WUHU216DAVISVP2,2013-01-29 15:38:00,
2013-01-29 09:43:00,62.1,56.9,29.61,North,3,6.0,17.0,83,0.00,,,0.00,WUHU216DAVISVP2,2013-01-29 15:43:00,
2013-01-29 09:48:00,62.1,56.9,29.62,NNE,20,5.0,17.0,83,0.00,,,0.00,WUHU216DAVISVP2,2013-01-29 15:48:00,
2013-01-29 09:53:00,62.0,56.9,29.61,North,8,10.0,16.0,83,0.00,,,0.00,WUHU216DAVISVP2,2013-01-29 15:53:00,
2013-01-29 09:58:00,61.9,56.7,29.61,NNE,20,8.0,16.0,83,0.00,,,0.00,WUHU216DAVISVP2,2013-01-29 15:58:00,
2013-01-29 10:03:00,61.8,56.6,29.61,North,352,3.0,16.0,83,0.00,,,0.00,WUHU216DAVISVP2,2013-01-29 16:03:00,
2013-01-29 10:08:00,61.8,56.6,29.60,North,355,13.0,19.0,83,0.00,,,0.00,WUHU216DAVISVP2,2013-01-29 16:08:00,
2013-01-29 10:13:00,61.8,56.7,29.60,NNE,15,8.0,19.0,83,0.00,,,0.00,WUHU216DAVISVP2,2013-01-29 16:13:00,
2013-01-29 10:18:00,61.8,56.3,29.60,North,1,8.0,19.0,82,0.00,,,0.00,WUHU216DAVISVP2,2013-01-29 16:18:00,
2013-01-29 10:23:00,62.0,56.5,29.59,North,349,12.0,19.0,82,0.00,,,0.00,WUHU216DAVISVP2,2013-01-29 16:23:00,
2013-01-29 10:28:00,62.1,56.2,29.59,North,5,15.0,16.0,81,0.00,,,0.00,WUHU216DAVISVP2,2013-01-29 16:28:00,
2013-01-29 10:33:00,62.3,56.4,29.58,North,7,12.0,18.0,81,0.00,,,0.00,WUHU216DAVISVP2,2013-01-29 16:33:00,
2013-01-29 10:38:00,62.6,56.4,29.58,North,354,12.0,18.0,80,0.00,,,0.00,WUHU216DAVISVP2,2013-01-29 16:38:00,
2013-01-29 10:43:00,62.8,56.6,29.58,NNE,20,6.0,18.0,80,0.00,,,0.00,WUHU216DAVISVP2,2013-01-29 16:43:00,
2013-01-29 10:48:00,62.8,56.2,29.57,North,6,7.0,18.0,79,0.00,,,0.00,WUHU216DAVISVP2,2013-01-29 16:48:00,
2013-01-29 10:53:00,62.7,56.1,29.57,North,360,6.0,19.0,79,0.00,,,0.00,WUHU216DAVISVP2,2013-01-29 16:53:00,
2013-01-29 10:58:00,62.8,56.2,29.57,NNE,15,8.0,19.0,79,0.00,,,0.00,WUHU216DAVISVP2,2013-01-29 16:58:00,
2013-01-29 11:03:00,62.8,56.3,29.57,NNW,347,13.0,19.0,79,0.00,,,0.00,WUHU216DAVISVP2,2013-01-29 17:03:00,
2013-01-29 11:08:00,62.8,55.9,29.57,NNE,25,13.0,20.0,78,0.00,,,0.00,WUHU216DAVISVP2,2013-01-29 17:08:00,
2013-01-29 11:13:00,62.9,56.0,29.56,NNE,15,14.0,21.0,78,0.00,,,0.00,WUHU216DAVISVP2,2013-01-29 17:13:00,
2013-01-29 11:18:00,63.0,56.1,29.56,North,349,13.0,21.0,78,0.00,,,0.00,WUHU216DAVISVP2,2013-01-29 17:18:00,
2013-01-29 11:23:00,63.1,55.8,29.55,North,358,3.0,22.0,77,0.00,,,0.00,WUHU216DAVISVP2,2013-01-29 17:23:00,
2013-01-29 11:28:00,63.1,55.8,29.54,NNE,25,7.0,22.0,77,0.00,,,0.00,WUHU216DAVISVP2,2013-01-29 17:28:00,
2013-01-29 11:33:00,63.0,55.8,29.54,North,356,18.0,22.0,77,0.00,,,0.00,WUHU216DAVISVP2,2013-01-29 17:33:00,
2013-01-29 11:38:00,62.9,55.7,29.54,NNE,15,14.0,21.0,77,0.00,,,0.00,WUHU216DAVISVP2,2013-01-29 17:38:00,
2013-01-29 11:43:00,62.9,55.6,29.52,North,6,8.0,22.0,77,0.00,,,0.00,WUHU216DAVISVP2,2013-01-29 17:43:00,
2013-01-29 11:48:00,62.6,55.7,29.52,NNE,15,16.0,22.0,78,0.00,,,0.00,WUHU216DAVISVP2,2013-01-29 17:48:00,
2013-01-29 11:53:00,62.3,55.7,29.51,NNW,330,8.0,22.0,79,0.00,,,0.00,WUHU216DAVISVP2,2013-01-29 17:53:00,
2013-01-29 11:58:00,62.0,55.5,29.51,NNW,347,12.0,22.0,79,0.00,,,0.00,WUHU216DAVISVP2,2013-01-29 17:58:00,
2013-01-29 12:03:00,62.0,55.5,29.51,NNW,345,15.0,22.0,79,0.00,,,0.00,WUHU216DAVISVP2,2013-01-29 18:03:00,
2013-01-29 12:08:00,61.6,55.8,29.50,NNW,339,17.0,22.0,81,0.00,,,0.00,WUHU216DAVISVP2,2013-01-29 18:08:00,
2013-01-29 12:13:00,60.8,55.9,29.50,NE,39,10.0,24.0,84,0.02,,,0.02,WUHU216DAVISVP2,2013-01-29 18:13:00,
2013-01-29 12:18:00,59.0,54.5,29.49,NE,46,7.0,29.0,85,0.03,,,0.03,WUHU216DAVISVP2,2013-01-29 18:18:00,
2013-01-29 12:23:00,57.8,54.0,29.50,NE,39,17.0,29.0,87,0.04,,,0.04,WUHU216DAVISVP2,2013-01-29 18:23:00,
2013-01-29 12:28:00,57.6,53.7,29.49,NE,39,8.0,29.0,87,0.05,,,0.05,WUHU216DAVISVP2,2013-01-29 18:28:00,
2013-01-29 12:33:00,57.4,53.8,29.49,NNE,33,13.0,24.0,88,0.05,,,0.05,WUHU216DAVISVP2,2013-01-29 18:33:00,
2013-01-29 12:38:00,57.2,54.3,29.48,North,350,7.0,23.0,90,0.08,,,0.08,WUHU216DAVISVP2,2013-01-29 18:38:00,
2013-01-29 12:43:00,57.3,54.7,29.46,NNE,25,14.0,33.0,91,0.13,,,0.14,WUHU216DAVISVP2,2013-01-29 18:43:00,
2013-01-29 12:48:00,57.9,55.3,29.47,NNE,25,10.0,33.0,91,0.18,,,0.18,WUHU216DAVISVP2,2013-01-29 18:48:00,
2013-01-29 12:54:00,58.0,54.8,29.47,ENE,57,5.0,33.0,89,0.22,,,0.22,WUHU216DAVISVP2,2013-01-29 18:54:00,
2013-01-29 12:59:00,57.9,55.3,29.46,NNE,31,5.0,33.0,91,0.26,,,0.26,WUHU216DAVISVP2,2013-01-29 18:59:00,
2013-01-29 13:04:00,57.5,55.2,29.46,NE,39,5.0,26.0,92,0.28,,,0.28,WUHU216DAVISVP2,2013-01-29 19:04:00,
2013-01-29 13:09:00,57.3,55.3,29.45,North,6,5.0,24.0,93,0.33,,,0.33,WUHU216DAVISVP2,2013-01-29 19:09:00,
2013-01-29 13:14:00,57.1,55.1,29.45,NNE,20,16.0,17.0,93,0.33,,,0.37,WUHU216DAVISVP2,2013-01-29 19:14:00,
2013-01-29 13:19:00,57.0,55.3,29.44,NNE,31,5.0,17.0,94,0.37,,,0.40,WUHU216DAVISVP2,2013-01-29 19:19:00,
2013-01-29 13:24:00,57.1,55.3,29.44,NE,35,7.0,17.0,94,0.39,,,0.43,WUHU216DAVISVP2,2013-01-29 19:24:00,
2013-01-29 13:29:00,57.0,55.2,29.44,ENE,62,6.0,17.0,94,0.38,,,0.43,WUHU216DAVISVP2,2013-01-29 19:29:00,
2013-01-29 13:34:00,57.0,55.2,29.44,NNE,31,9.0,10.0,94,0.38,,,0.44,WUHU216DAVISVP2,2013-01-29 19:34:00,
2013-01-29 13:39:00,55.9,53.3,29.49,SE,127,16.0,38.0,91,0.37,,,0.45,WUHU216DAVISVP2,2013-01-29 19:39:00,
2013-01-29 13:44:00,52.8,49.6,29.49,ESE,104,5.0,38.0,89,0.32,,,0.46,WUHU216DAVISVP2,2013-01-29 19:44:00,
2013-01-29 13:49:00,51.0,48.4,29.51,ESE,110,3.0,38.0,91,0.29,,,0.47,WUHU216DAVISVP2,2013-01-29 19:49:00,
2013-01-29 13:54:00,50.1,47.9,29.49,SE,130,8.0,38.0,92,0.26,,,0.48,WUHU216DAVISVP2,2013-01-29 19:54:00,
2013-01-29 13:59:00,49.8,47.8,29.47,SSE,148,8.0,16.0,93,0.23,,,0.49,WUHU216DAVISVP2,2013-01-29 19:59:00,
2013-01-29 14:00:00,49.8,47.8,29.46,SE,138,4.0,16.0,93,0.23,,,0.49,WUHU216DAVISVP2,2013-01-29 20:00:00,
2013-01-29 14:05:00,49.6,47.9,29.47,SSE,163,2.0,16.0,94,0.21,,,0.50,WUHU216DAVISVP2,2013-01-29 20:05:00,
2013-01-29 14:10:00,49.7,48.0,29.46,SSE,151,0.0,15.0,94,0.16,,,0.50,WUHU216DAVISVP2,2013-01-29 20:10:00,
2013-01-29 14:15:00,49.7,48.0,29.48,SSE,151,0.0,15.0,94,0.14,,,0.51,WUHU216DAVISVP2,2013-01-29 20:15:00,
2013-01-29 14:20:00,49.7,48.0,29.49,SSE,151,0.0,6.0,94,0.11,,,0.52,WUHU216DAVISVP2,2013-01-29 20:20:00,
2013-01-29 14:25:00,49.8,48.4,29.49,SSE,151,0.0,6.0,95,0.10,,,0.53,WUHU216DAVISVP2,2013-01-29 20:25:00,
2013-01-29 14:30:00,49.8,48.3,29.50,SSE,151,0.0,2.0,95,0.11,,,0.54,WUHU216DAVISVP2,2013-01-29 20:30:00,
2013-01-29 14:35:00,49.8,48.4,29.49,SSE,151,0.0,2.0,95,0.11,,,0.55,WUHU216DAVISVP2,2013-01-29 20:35:00,
2013-01-29 14:40:00,49.8,48.4,29.49,SSE,151,0.0,2.0,95,0.10,,,0.55,WUHU216DAVISVP2,2013-01-29 20:40:00,
2013-01-29 14:45:00,49.9,48.5,29.48,SSE,151,0.0,1.0,95,0.10,,,0.56,WUHU216DAVISVP2,2013-01-29 20:45:00,
2013-01-29 14:50:00,50.0,48.6,29.47,SSE,151,2.0,5.0,95,0.10,,,0.57,WUHU216DAVISVP2,2013-01-29 20:50:00,
2013-01-29 14:55:00,50.1,48.6,29.46,SSE,151,1.0,5.0,95,0.09,,,0.57,WUHU216DAVISVP2,2013-01-29 20:55:00,
2013-01-29 15:00:00,50.1,48.7,29.47,SSE,151,0.0,5.0,95,0.09,,,0.58,WUHU216DAVISVP2,2013-01-29 21:00:00,
2013-01-29 15:05:00,50.1,48.7,29.45,SSE,151,0.0,5.0,95,0.09,,,0.59,WUHU216DAVISVP2,2013-01-29 21:05:00,
2013-01-29 15:10:00,50.2,48.8,29.47,SSE,151,0.0,4.0,95,0.08,,,0.59,WUHU216DAVISVP2,2013-01-29 21:10:00,
2013-01-29 15:15:00,50.3,48.9,29.46,SSE,151,1.0,4.0,95,0.09,,,0.60,WUHU216DAVISVP2,2013-01-29 21:15:00,
2013-01-29 15:20:00,50.4,49.0,29.46,SSE,150,4.0,5.0,95,0.09,,,0.61,WUHU216DAVISVP2,2013-01-29 21:20:00,
2013-01-29 15:25:00,50.6,49.1,29.45,WSW,254,2.0,6.0,95,0.09,,,0.62,WUHU216DAVISVP2,2013-01-29 21:25:00,
2013-01-29 15:30:00,50.7,49.5,29.45,WSW,255,0.0,6.0,96,0.08,,,0.62,WUHU216DAVISVP2,2013-01-29 21:30:00,
2013-01-29 15:35:00,50.8,49.4,29.45,West,281,5.0,7.0,95,0.08,,,0.63,WUHU216DAVISVP2,2013-01-29 21:35:00,
2013-01-29 15:42:00,50.9,49.8,29.46,WNW,282,1.0,7.0,96,0.08,,,0.64,WUHU216DAVISVP2,2013-01-29 21:42:00,
2013-01-29 15:47:00,51.0,49.8,29.48,WNW,287,0.0,7.0,96,0.08,,,0.64,WUHU216DAVISVP2,2013-01-29 21:47:00,
2013-01-29 15:52:00,51.1,49.9,29.45,WNW,283,6.0,7.0,96,0.08,,,0.65,WUHU216DAVISVP2,2013-01-29 21:52:00,
2013-01-29 15:57:00,51.2,50.1,29.44,WNW,283,6.0,7.0,96,0.08,,,0.66,WUHU216DAVISVP2,2013-01-29 21:57:00,
2013-01-29 16:02:00,51.2,50.1,29.43,WNW,283,0.0,6.0,96,0.09,,,0.67,WUHU216DAVISVP2,2013-01-29 22:02:00,
2013-01-29 16:07:00,51.4,50.2,29.43,WNW,283,3.0,6.0,96,0.08,,,0.67,WUHU216DAVISVP2,2013-01-29 22:07:00,
2013-01-29 16:12:00,51.4,50.2,29.46,West,267,4.0,6.0,96,0.08,,,0.68,WUHU216DAVISVP2,2013-01-29 22:12:00,
2013-01-29 16:17:00,51.6,50.5,29.46,West,272,2.0,6.0,96,0.09,,,0.69,WUHU216DAVISVP2,2013-01-29 22:17:00,
2013-01-29 16:22:00,51.7,50.5,29.46,West,272,4.0,6.0,96,0.08,,,0.69,WUHU216DAVISVP2,2013-01-29 22:22:00,
2013-01-29 16:27:00,51.8,50.7,29.44,West,272,3.0,5.0,96,0.08,,,0.70,WUHU216DAVISVP2,2013-01-29 22:27:00,
2013-01-29 16:32:00,51.8,50.7,29.45,West,272,2.0,5.0,96,0.09,,,0.71,WUHU216DAVISVP2,2013-01-29 22:32:00,
2013-01-29 16:37:00,51.8,50.6,29.44,West,272,4.0,6.0,96,0.09,,,0.72,WUHU216DAVISVP2,2013-01-29 22:37:00,
2013-01-29 16:42:00,51.8,50.7,29.47,West,272,2.0,6.0,96,0.08,,,0.72,WUHU216DAVISVP2,2013-01-29 22:42:00,
2013-01-29 16:47:00,52.0,50.8,29.46,West,272,1.0,6.0,96,0.09,,,0.73,WUHU216DAVISVP2,2013-01-29 22:47:00,
2013-01-29 16:52:00,52.0,50.9,29.46,West,272,1.0,6.0,96,0.09,,,0.74,WUHU216DAVISVP2,2013-01-29 22:52:00,
2013-01-29 16:57:00,52.2,51.0,29.44,West,272,1.0,4.0,96,0.08,,,0.74,WUHU216DAVISVP2,2013-01-29 22:57:00,
2013-01-29 17:02:00,52.3,51.2,29.45,West,272,0.0,2.0,96,0.08,,,0.75,WUHU216DAVISVP2,2013-01-29 23:02:00,
2013-01-29 17:07:00,52.5,51.3,29.47,West,272,0.0,3.0,96,0.09,,,0.76,WUHU216DAVISVP2,2013-01-29 23:07:00,
2013-01-29 17:12:00,52.5,51.4,29.46,West,271,1.0,3.0,96,0.08,,,0.76,WUHU216DAVISVP2,2013-01-29 23:12:00,
2013-01-29 17:17:00,52.6,51.4,29.45,West,272,2.0,3.0,96,0.08,,,0.77,WUHU216DAVISVP2,2013-01-29 23:17:00,
2013-01-29 17:22:00,52.7,51.6,29.46,West,272,0.0,3.0,96,0.09,,,0.78,WUHU216DAVISVP2,2013-01-29 23:22:00,
2013-01-29 17:27:00,52.9,51.7,29.45,West,272,3.0,3.0,96,0.08,,,0.78,WUHU216DAVISVP2,2013-01-29 23:27:00,
2013-01-29 17:32:00,53.0,51.9,29.46,West,272,0.0,4.0,96,0.08,,,0.79,WUHU216DAVISVP2,2013-01-29 23:32:00,
2013-01-29 17:37:00,53.2,52.0,29.45,West,272,2.0,4.0,96,0.08,,,0.80,WUHU216DAVISVP2,2013-01-29 23:37:00,
2013-01-29 17:42:00,53.2,52.1,29.45,West,272,1.0,4.0,96,0.08,,,0.80,WUHU216DAVISVP2,2013-01-29 23:42:00,
2013-01-29 17:47:00,53.4,52.2,29.45,West,272,1.0,4.0,96,0.08,,,0.81,WUHU216DAVISVP2,2013-01-29 23:47:00,
2013-01-29 17:52:00,53.5,52.3,29.44,West,272,2.0,5.0,96,0.08,,,0.82,WUHU216DAVISVP2,2013-01-29 23:52:00,
2013-01-29 17:57:00,53.6,52.5,29.44,South,175,0.0,8.0,96,0.08,,,0.82,WUHU216DAVISVP2,2013-01-29 23:57:00,
2013-01-29 18:02:00,53.6,52.4,29.45,South,175,2.0,8.0,96,0.08,,,0.83,WUHU216DAVISVP2,2013-01-30 00:02:00,
2013-01-29 18:07:00,53.4,52.3,29.45,South,175,1.0,8.0,96,0.08,,,0.84,WUHU216DAVISVP2,2013-01-30 00:07:00,
2013-01-29 18:12:00,53.4,52.3,29.46,South,175,1.0,8.0,96,0.08,,,0.84,WUHU216DAVISVP2,2013-01-30 00:12:00,
2013-01-29 18:17:00,53.4,52.2,29.48,South,175,0.0,4.0,96,0.08,,,0.85,WUHU216DAVISVP2,2013-01-30 00:17:00,
2013-01-29 18:22:00,53.2,52.1,29.49,South,175,0.0,3.0,96,0.08,,,0.86,WUHU216DAVISVP2,2013-01-30 00:22:00,
2013-01-29 18:27:00,53.2,52.1,29.48,South,175,1.0,3.0,96,0.08,,,0.86,WUHU216DAVISVP2,2013-01-30 00:27:00,
2013-01-29 18:32:00,53.1,51.9,29.48,South,175,1.0,3.0,96,0.08,,,0.87,WUHU216DAVISVP2,2013-01-30 00:32:00,
2013-01-29 18:37:00,53.0,51.9,29.49,South,175,3.0,4.0,96,0.08,,,0.88,WUHU216DAVISVP2,2013-01-30 00:37:00,
2013-01-29 18:42:00,53.0,51.8,29.49,WSW,243,1.0,4.0,96,0.08,,,0.88,WUHU216DAVISVP2,2013-01-30 00:42:00,
2013-01-29 18:47:00,52.9,51.8,29.48,WSW,243,0.0,4.0,96,0.08,,,0.89,WUHU216DAVISVP2,2013-01-30 00:47:00,
2013-01-29 18:52:00,52.9,51.8,29.48,WSW,243,0.0,4.0,96,0.08,,,0.90,WUHU216DAVISVP2,2013-01-30 00:52:00,
2013-01-29 18:57:00,52.9,51.7,29.48,WSW,243,0.0,4.0,96,0.08,,,0.90,WUHU216DAVISVP2,2013-01-30 00:57:00,
2013-01-29 19:02:00,52.7,51.6,29.48,WSW,243,0.0,1.0,96,0.08,,,0.91,WUHU216DAVISVP2,2013-01-30 01:02:00,
2013-01-29 19:07:00,52.7,51.6,29.47,WSW,243,1.0,2.0,96,0.08,,,0.92,WUHU216DAVISVP2,2013-01-30 01:07:00,
2013-01-29 19:12:00,52.7,51.5,29.47,WSW,243,1.0,2.0,96,0.08,,,0.92,WUHU216DAVISVP2,2013-01-30 01:12:00,
2013-01-29 19:17:00,52.6,51.5,29.48,WSW,249,4.0,5.0,96,0.08,,,0.93,WUHU216DAVISVP2,2013-01-30 01:17:00,
2013-01-29 19:22:00,52.6,51.5,29.48,West,270,3.0,5.0,96,0.07,,,0.93,WUHU216DAVISVP2,2013-01-30 01:22:00,
2013-01-29 19:27:00,52.6,51.4,29.48,West,274,2.0,5.0,96,0.08,,,0.94,WUHU216DAVISVP2,2013-01-30 01:27:00,
2013-01-29 19:32:00,52.4,51.3,29.47,West,276,3.0,5.0,96,0.07,,,0.95,WUHU216DAVISVP2,2013-01-30 01:32:00,
2013-01-29 19:37:00,52.3,51.1,29.47,WNW,303,4.0,7.0,96,0.07,,,0.95,WUHU216DAVISVP2,2013-01-30 01:37:00,
2013-01-29 19:42:00,52.3,51.1,29.47,NW,306,5.0,7.0,96,0.08,,,0.96,WUHU216DAVISVP2,2013-01-30 01:42:00,
2013-01-29 19:47:00,52.1,51.0,29.47,NW,313,5.0,9.0,96,0.07,,,0.96,WUHU216DAVISVP2,2013-01-30 01:47:00,
2013-01-29 19:52:00,52.1,50.9,29.47,NW,312,3.0,9.0,96,0.07,,,0.97,WUHU216DAVISVP2,2013-01-30 01:52:00,
2013-01-29 19:57:00,51.9,50.8,29.46,NW,312,0.0,9.0,96,0.08,,,0.98,WUHU216DAVISVP2,2013-01-30 01:57:00,
2013-01-29 20:02:00,51.8,50.7,29.46,NW,312,0.0,9.0,96,0.07,,,0.98,WUHU216DAVISVP2,2013-01-30 02:02:00,
2013-01-29 20:07:00,51.8,50.6,29.44,NW,312,4.0,5.0,96,0.07,,,0.99,WUHU216DAVISVP2,2013-01-30 02:07:00,
2013-01-29 20:12:00,51.6,50.5,29.45,NW,312,1.0,5.0,96,0.08,,,1.00,WUHU216DAVISVP2,2013-01-30 02:12:00,
2013-01-29 20:17:00,51.6,50.5,29.45,NW,312,3.0,5.0,96,0.07,,,1.00,WUHU216DAVISVP2,2013-01-30 02:17:00,
2013-01-29 20:22:00,51.5,50.3,29.45,NW,312,0.0,5.0,96,0.07,,,1.01,WUHU216DAVISVP2,2013-01-30 02:22:00,
2013-01-29 20:27:00,51.5,50.3,29.45,NW,312,1.0,4.0,96,0.07,,,1.01,WUHU216DAVISVP2,2013-01-30 02:27:00,
2013-01-29 20:32:00,51.3,50.2,29.43,NW,312,1.0,5.0,96,0.07,,,1.02,WUHU216DAVISVP2,2013-01-30 02:32:00,
2013-01-29 20:37:00,51.2,50.1,29.43,NW,317,3.0,5.0,96,0.07,,,1.02,WUHU216DAVISVP2,2013-01-30 02:37:00,
2013-01-29 20:42:00,51.3,50.1,29.44,NW,323,5.0,5.0,96,0.07,,,1.03,WUHU216DAVISVP2,2013-01-30 02:42:00,
2013-01-29 20:47:00,51.1,50.0,29.44,NW,322,2.0,6.0,96,0.08,,,1.04,WUHU216DAVISVP2,2013-01-30 02:47:00,
2013-01-29 20:52:00,51.1,50.0,29.44,NW,322,3.0,6.0,96,0.07,,,1.04,WUHU216DAVISVP2,2013-01-30 02:52:00,
2013-01-29 20:57:00,51.0,49.8,29.43,NW,324,3.0,7.0,96,0.07,,,1.05,WUHU216DAVISVP2,2013-01-30 02:57:00,
2013-01-29 21:02:00,50.9,49.8,29.42,NW,310,6.0,7.0,96,0.07,,,1.05,WUHU216DAVISVP2,2013-01-30 03:02:00,
2013-01-29 21:07:00,50.8,49.7,29.41,NW,310,3.0,8.0,96,0.07,,,1.06,WUHU216DAVISVP2,2013-01-30 03:07:00,
2013-01-29 21:12:00,50.8,49.6,29.41,NW,308,3.0,8.0,96,0.06,,,1.06,WUHU216DAVISVP2,2013-01-30 03:12:00,
2013-01-29 21:17:00,50.7,49.5,29.43,NNW,333,4.0,8.0,96,0.07,,,1.07,WUHU216DAVISVP2,2013-01-30 03:17:00,
2013-01-29 21:22:00,50.6,49.5,29.43,NNW,337,6.0,8.0,96,0.07,,,1.08,WUHU216DAVISVP2,2013-01-30 03:22:00,
2013-01-29 21:27:00,50.5,49.4,29.43,NNW,329,3.0,8.0,96,0.07,,,1.08,WUHU216DAVISVP2,2013-01-30 03:27:00,
2013-01-29 21:32:00,50.4,49.2,29.42,NW,326,4.0,8.0,96,0.07,,,1.09,WUHU216DAVISVP2,2013-01-30 03:32:00,
2013-01-29 21:37:00,50.3,49.2,29.42,NW,326,6.0,8.0,96,0.07,,,1.09,WUHU216DAVISVP2,2013-01-30 03:37:00,
2013-01-29 21:42:00,50.2,49.1,29.42,NNW,331,6.0,9.0,96,0.07,,,1.10,WUHU216DAVISVP2,2013-01-30 03:42:00,
2013-01-29 21:47:00,50.1,49.0,29.42,NW,316,2.0,9.0,96,0.06,,,1.10,WUHU216DAVISVP2,2013-01-30 03:47:00,
2013-01-29 21:52:00,50.1,48.9,29.43,NW,320,1.0,9.0,96,0.07,,,1.11,WUHU216DAVISVP2,2013-01-30 03:52:00,
2013-01-29 21:57:00,50.0,48.9,29.43,NW,320,5.0,9.0,96,0.07,,,1.12,WUHU216DAVISVP2,2013-01-30 03:57:00,
2013-01-29 22:02:00,49.9,48.8,29.44,NW,320,3.0,9.0,96,0.07,,,1.12,WUHU216DAVISVP2,2013-01-30 04:02:00,
2013-01-29 22:07:00,49.9,48.8,29.45,NW,323,4.0,6.0,96,0.07,,,1.13,WUHU216DAVISVP2,2013-01-30 04:07:00,
2013-01-29 22:12:00,49.9,48.7,29.46,North,358,3.0,7.0,96,0.07,,,1.13,WUHU216DAVISVP2,2013-01-30 04:12:00,
2013-01-29 22:17:00,49.8,48.6,29.45,North,2,0.0,8.0,96,0.07,,,1.14,WUHU216DAVISVP2,2013-01-30 04:17:00,
2013-01-29 22:22:00,49.6,48.5,29.45,North,2,1.0,8.0,96,0.06,,,1.14,WUHU216DAVISVP2,2013-01-30 04:22:00,
2013-01-29 22:27:00,49.6,48.5,29.45,North,3,1.0,8.0,96,0.07,,,1.15,WUHU216DAVISVP2,2013-01-30 04:27:00,
2013-01-29 22:32:00,49.5,48.4,29.46,North,3,0.0,8.0,96,0.07,,,1.16,WUHU216DAVISVP2,2013-01-30 04:32:00,
2013-01-29 22:37:00,49.5,48.3,29.46,NNE,15,4.0,7.0,96,0.07,,,1.16,WUHU216DAVISVP2,2013-01-30 04:37:00,
2013-01-29 22:42:00,49.5,48.3,29.47,NNE,15,0.0,7.0,96,0.07,,,1.17,WUHU216DAVISVP2,2013-01-30 04:42:00,
2013-01-29 22:47:00,49.4,48.3,29.48,North,10,3.0,7.0,96,0.07,,,1.17,WUHU216DAVISVP2,2013-01-30 04:47:00,
2013-01-29 22:52:00,49.4,48.3,29.48,NNE,25,5.0,7.0,96,0.07,,,1.18,WUHU216DAVISVP2,2013-01-30 04:52:00,
2013-01-29 22:57:00,49.4,48.3,29.50,East,91,10.0,14.0,96,0.06,,,1.18,WUHU216DAVISVP2,2013-01-30 04:57:00,
2013-01-29 23:00:00,49.5,48.4,29.50,ENE,59,9.0,17.0,96,0.07,,,1.19,WUHU216DAVISVP2,2013-01-30 05:00:00,
2013-01-29 23:02:00,49.4,48.3,29.50,East,87,11.0,17.0,96,0.07,,,1.19,WUHU216DAVISVP2,2013-01-30 05:02:00,
2013-01-29 23:03:00,49.2,48.1,29.50,ENE,75,16.0,18.0,96,0.07,,,1.19,WUHU216DAVISVP2,2013-01-30 05:03:00,
2013-01-29 23:08:00,48.9,47.2,29.49,ENE,59,16.0,24.0,94,0.07,,,1.20,WUHU216DAVISVP2,2013-01-30 05:08:00,
2013-01-29 23:13:00,48.2,46.2,29.48,ESE,108,8.0,24.0,93,0.07,,,1.20,WUHU216DAVISVP2,2013-01-30 05:13:00,
2013-01-29 23:19:00,47.2,45.3,29.48,ESE,119,9.0,24.0,93,0.07,,,1.21,WUHU216DAVISVP2,2013-01-30 05:19:00,
2013-01-29 23:24:00,46.6,44.7,29.44,SW,220,7.0,18.0,93,0.07,,,1.22,WUHU216DAVISVP2,2013-01-30 05:24:00,
2013-01-29 23:29:00,46.1,44.2,29.43,SW,235,0.0,16.0,93,0.07,,,1.22,WUHU216DAVISVP2,2013-01-30 05:29:00,
2013-01-29 23:34:00,45.8,44.1,29.43,SW,236,3.0,14.0,94,0.07,,,1.23,WUHU216DAVISVP2,2013-01-30 05:34:00,
2013-01-29 23:39:00,45.6,43.9,29.42,SW,235,3.0,8.0,94,0.07,,,1.23,WUHU216DAVISVP2,2013-01-30 05:39:00,
2013-01-29 23:44:00,45.5,43.8,29.41,WSW,245,5.0,7.0,94,0.07,,,1.24,WUHU216DAVISVP2,2013-01-30 05:44:00,
2013-01-29 23:49:00,45.5,43.8,29.40,West,267,5.0,8.0,94,0.06,,,1.24,WUHU216DAVISVP2,2013-01-30 05:49:00,
2013-01-29 23:54:00,45.5,43.8,29.40,WNW,297,5.0,8.0,94,0.07,,,1.25,WUHU216DAVISVP2,2013-01-30 05:54:00,
2013-01-29 23:59:00,45.5,44.1,29.40,WNW,296,4.0,8.0,95,0.06,,,1.25,WUHU216DAVISVP2,2013-01-30 05:59:00,